Weather History for Osceola Municipal, IA

Change the Weather History Date:

Tuesday, October 1, 2013

  Actual Average (KLWD) Record (KLWD)
Temperature  
Mean Temperature 68 °F 59 °F  
Max Temperature 81 °F 70 °F 89 °F (1976)
Min Temperature 56 °F 48 °F 31 °F (1985)
Degree Days  
Heating Degree Days 0 8  
Month to date heating degree days 8  
Since 1 July heating degree days 108  
Cooling Degree Days 4 1  
Month to date cooling degree days 1  
Year to date cooling degree days 934  
Growing Degree Days 18 (Base 50)    
Moisture  
Dew Point 56 °F    
Average Humidity 70    
Maximum Humidity 91    
Minimum Humidity 40    
Precipitation  
Precipitation 0.00 in 0.08 in 0.36 in (1962)
Month to date precipitation 0.08  
Sea Level Pressure  
Sea Level Pressure 29.91 in    
Wind  
Wind Speed 7 mph (SSW)    
Max Wind Speed 12 mph    
Max Gust Speed 17 mph    
Visibility 10 miles    
Events      
T = Trace of Precipitation, MM = Missing Value Source: NWS Daily Summary

Daily Weather History Graph

Daily Weather History Graph

Search for Another Location

Airport:

Trip Planner

Search our weather history database for the weather conditions in past years. The results will help you decide how hot, cold, wet, or windy it might be!

Date:

Astronomy

Oct. 01, 2013 Rise Set
Actual Time 7:11 AM CDT 6:56 PM CDT
Civil Twilight 6:44 AM CDT 7:23 PM CDT
Nautical Twilight 6:12 AM CDT 7:55 PM CDT
Astronomical Twilight 5:40 AM CDT 8:27 PM CDT
Moon 3:45 AM CDT (10/1) 5:01 PM CDT (10/1)
Length of Visible Light 12h 39m
Length of Day
11h 44m
Waning Crescent, 12% of the Moon is Illuminated
Oct 1
Waning Crescent
Oct 4
New
Oct 11
First Quarter
Oct 18
Full
Oct 26
Last Quarter

Hourly Weather History & Observations

Time (CDT) Temp. Heat Index Dew Point Humidity Pressure Visibility Wind Dir Wind Speed Gust Speed Precip Events Conditions
12:15 AM 63.5 °F - 57.7 °F 81% 29.83 in 10.0 mi South 9.2 mph - N/A   Clear
12:35 AM 62.8 °F - 57.6 °F 83% 29.83 in 10.0 mi South 8.1 mph - N/A   Clear
12:55 AM 62.2 °F - 57.6 °F 85% 29.83 in 10.0 mi South 8.1 mph - N/A   Clear
1:15 AM 61.7 °F - 57.4 °F 86% 29.83 in 10.0 mi South 6.9 mph - N/A   Clear
1:35 AM 61.7 °F - 57.2 °F 85% 29.83 in 10.0 mi South 9.2 mph - N/A   Clear
1:55 AM 61.7 °F - 57.2 °F 85% 29.84 in 10.0 mi South 8.1 mph - N/A   Clear
2:15 AM 61.3 °F - 56.7 °F 85% 29.84 in 10.0 mi South 8.1 mph - N/A   Clear
2:35 AM 61.2 °F - 56.3 °F 84% 29.84 in 10.0 mi South 8.1 mph - N/A   Clear
2:55 AM 60.8 °F - 56.5 °F 86% 29.84 in 10.0 mi SSW 8.1 mph - N/A   Clear
3:15 AM 60.4 °F - 56.3 °F 86% 29.84 in 10.0 mi SSW 8.1 mph - N/A   Clear
3:35 AM 59.9 °F - 56.3 °F 88% 29.83 in 10.0 mi South 8.1 mph - N/A   Clear
3:55 AM 59.5 °F - 55.9 °F 88% 29.83 in 10.0 mi South 6.9 mph - N/A   Clear
4:15 AM 59.2 °F - 55.6 °F 88% 29.83 in 10.0 mi South 8.1 mph - N/A   Clear
4:35 AM 59.2 °F - 55.4 °F 87% 29.84 in 10.0 mi South 8.1 mph - N/A   Clear
4:55 AM 58.6 °F - 54.9 °F 87% 29.85 in 10.0 mi South 6.9 mph - N/A   Clear
5:15 AM 58.1 °F - 54.5 °F 88% 29.85 in 10.0 mi South 6.9 mph - N/A   Clear
5:35 AM 57.7 °F - 54.3 °F 88% 29.86 in 10.0 mi SSW 6.9 mph - N/A   Clear
5:55 AM 57.4 °F - 54.0 °F 88% 29.87 in 10.0 mi SSW 4.6 mph - N/A   Clear
6:15 AM 56.7 °F - 53.8 °F 90% 29.88 in 10.0 mi SSW 4.6 mph - N/A   Clear
6:35 AM 56.3 °F - 53.6 °F 91% 29.89 in 10.0 mi South 4.6 mph - N/A   Clear
6:55 AM 56.3 °F - 53.6 °F 91% 29.89 in 10.0 mi South 5.8 mph - N/A   Clear
7:15 AM 56.7 °F - 54.0 °F 91% 29.89 in 10.0 mi South 6.9 mph - N/A   Clear
7:35 AM 57.2 °F - 54.5 °F 91% 29.89 in 10.0 mi South 6.9 mph - N/A   Clear
7:55 AM 58.1 °F - 54.7 °F 88% 29.89 in 10.0 mi South 6.9 mph - N/A   Clear
8:15 AM 59.4 °F - 55.4 °F 87% 29.90 in 10.0 mi SSW 9.2 mph - N/A   Clear
8:35 AM 61.2 °F - 55.6 °F 82% 29.90 in 10.0 mi South 9.2 mph - N/A   Clear
8:55 AM 62.8 °F - 55.8 °F 78% 29.91 in 10.0 mi SSW 10.4 mph - N/A   Clear
9:15 AM 64.6 °F - 56.1 °F 74% 29.91 in 10.0 mi SW 8.1 mph - N/A   Clear
9:35 AM 66.6 °F - 56.3 °F 69% 29.92 in 10.0 mi SSW 9.2 mph - N/A   Clear
9:55 AM 67.8 °F - 56.1 °F 66% 29.93 in 10.0 mi SW 11.5 mph - N/A   Clear
10:15 AM 68.7 °F - 56.3 °F 64% 29.93 in 10.0 mi SW 10.4 mph - N/A   Clear
10:35 AM 70.2 °F - 55.9 °F 61% 29.93 in 10.0 mi SW 9.2 mph - N/A   Clear
10:55 AM 71.6 °F - 56.1 °F 58% 29.93 in 10.0 mi SW 11.5 mph 17.3 mph N/A   Clear
11:15 AM 72.7 °F - 55.2 °F 54% 29.93 in 10.0 mi SW 11.5 mph 17.3 mph N/A   Clear
11:35 AM 73.4 °F - 55.6 °F 54% 29.92 in 7.0 mi SW 9.2 mph - N/A   Clear
11:55 AM 74.5 °F - 54.9 °F 50% 29.93 in 10.0 mi SW 10.4 mph - N/A   Clear
12:15 PM 74.5 °F - 55.2 °F 51% 29.93 in 10.0 mi West 9.2 mph - N/A   Clear
12:35 PM 75.6 °F - 55.4 °F 49% 29.93 in 10.0 mi WSW 8.1 mph - N/A   Clear
12:55 PM 75.7 °F - 55.2 °F 49% 29.93 in 7.0 mi WSW 6.9 mph - N/A   Clear
1:15 PM 76.6 °F - 56.3 °F 49% 29.93 in 5.0 mi WSW 8.1 mph - N/A   Haze
1:35 PM 77.9 °F - 56.7 °F 48% 29.93 in 10.0 mi West 5.8 mph - N/A   Clear
1:55 PM 78.1 °F - 57.0 °F 48% 29.92 in 10.0 mi West 5.8 mph - N/A   Clear
2:15 PM 78.6 °F - 55.9 °F 46% 29.92 in 10.0 mi SW 5.8 mph - N/A   Clear
2:35 PM 79.9 °F - 55.9 °F 44% 29.92 in 7.0 mi SW 4.6 mph - N/A   Clear
2:55 PM 79.7 °F - 55.4 °F 43% 29.91 in 7.0 mi West 6.9 mph - N/A   Clear
3:15 PM 80.1 °F 80.2 °F 55.4 °F 43% 29.91 in 7.0 mi SW 5.8 mph - N/A   Clear
3:35 PM 81.0 °F 80.8 °F 55.6 °F 42% 29.91 in 10.0 mi SW 9.2 mph - N/A   Clear
3:55 PM 81.3 °F 80.9 °F 55.0 °F 40% 29.91 in 10.0 mi SSW 6.9 mph - N/A   Clear
4:15 PM 81.5 °F 81.0 °F 55.0 °F 40% 29.91 in 7.0 mi WSW 3.5 mph - N/A   Clear
4:35 PM 81.1 °F 80.9 °F 55.0 °F 41% 29.91 in 10.0 mi West 5.8 mph - N/A   Clear
4:55 PM 80.8 °F 80.6 °F 54.9 °F 41% 29.92 in 10.0 mi WSW 5.8 mph - N/A   Clear
5:15 PM 80.6 °F 80.5 °F 55.8 °F 42% 29.92 in 10.0 mi West 4.6 mph - N/A   Clear
5:35 PM 79.9 °F - 55.9 °F 44% 29.92 in 10.0 mi West 3.5 mph - N/A   Clear
5:55 PM 79.2 °F - 56.3 °F 45% 29.92 in 10.0 mi Calm Calm - N/A   Clear
6:15 PM 77.4 °F - 58.5 °F 52% 29.92 in 10.0 mi Calm Calm - N/A   Clear
6:35 PM 74.3 °F - 58.5 °F 58% 29.93 in 10.0 mi Calm Calm - N/A   Clear
6:55 PM 70.0 °F - 59.0 °F 68% 29.93 in 7.0 mi Calm Calm - N/A   Clear
7:15 PM 67.6 °F - 57.9 °F 71% 29.93 in 3.0 mi Calm Calm - N/A   Haze
7:35 PM 66.2 °F - 57.4 °F 73% 29.94 in 10.0 mi Calm Calm - N/A   Clear
7:55 PM 67.1 °F - 57.6 °F 71% 29.94 in 10.0 mi North 5.8 mph - N/A   Clear
8:15 PM 65.5 °F - 57.6 °F 76% 29.95 in 10.0 mi Calm Calm - N/A   Clear
8:35 PM 64.0 °F - 57.2 °F 78% 29.95 in 10.0 mi Calm Calm - N/A   Clear
8:55 PM 63.0 °F - 57.0 °F 81% 29.96 in 10.0 mi ESE 4.6 mph - N/A   Clear
9:15 PM 61.3 °F - 56.7 °F 85% 29.96 in 10.0 mi East 3.5 mph - N/A   Clear
9:35 PM 60.8 °F - 57.2 °F 88% 29.96 in 10.0 mi ENE 3.5 mph - N/A   Clear
9:55 PM 62.4 °F - 57.2 °F 83% 29.97 in 10.0 mi ESE 4.6 mph - N/A   Clear
10:15 PM 62.8 °F - 56.7 °F 80% 29.97 in 10.0 mi SE 5.8 mph - N/A   Clear
10:35 PM 62.1 °F - 56.5 °F 82% 29.97 in 10.0 mi ESE 3.5 mph - N/A   Clear
10:55 PM 61.2 °F - 56.3 °F 84% 29.98 in 10.0 mi SE 3.5 mph - N/A   Clear
11:15 PM 61.7 °F - 56.5 °F 83% 29.98 in 10.0 mi Calm Calm - N/A   Clear
11:35 PM 59.2 °F - 55.6 °F 88% 29.98 in 10.0 mi Calm Calm - N/A   Clear
11:55 PM 62.8 °F - 56.3 °F 79% 29.98 in 10.0 mi East 3.5 mph - N/A   Clear